sat.trackr.live / text

‹ back to catalog

STARLINK-32717

NORAD 62491 · 2025-003E

PAYLOAD ACTIVE UNKNOWN

§ Identity

Operator
Country
US
Launch date
2025-01-06
Launch site
AFETR
Launch vehicle
Mass (kg)
RCS (m²)

Purposes: comms

External: N2YO · Heavens-Above · Gunter

§ Orbital elements

Epoch: 2026-05-24T22:24:04.768128Z

Period
94.27 min
Inclination
43.0018°
Eccentricity
0.0002433
Mean motion
15.27590454 rev/d
Perigee alt
481.3 km
Apogee alt
484.7 km
Semi-major
6,861.2 km
B*
4.1739e-4
RAAN
218.2557°
Arg perigee
277.9067°
Mean anomaly
82.1508°
Rev number
7,833

§ Raw data

STARLINK-327171 62491U 25003E   26144.93338852  .00011245  00000+0  41739-3 0  99992 62491  43.0018 218.2557 0002433 277.9067  82.1508 15.27590454 78337

JSON: /api/v1/satellites/62491 · /tle

For live sub-satellite position, see the globe view (requires WebGL).

§ Visibility from observer

Set your observer location to see the next 7 days of passes ≥ 10°. The values pass through the URL so the page stays shareable.

No JS? Fill the form by hand. The geolocation button needs JavaScript.